This is the latest recevied weather packets stored in our database for station/object K0SNA. If no packets are shown the sender has not sent any weather packets the latest 10 day(s).
| Time | Temp. | Humidity | Pressure | Rain* | Wind** | Luminosity | Snow |
|---|---|---|---|---|---|---|---|
| 1777669685 | 11.67° C | 33% | 1018.5 hPa | 0 mm | - | 591 W/m² | - |
| 1777669382 | 10.56° C | 35% | 1018.8 hPa | 0 mm | - | 560 W/m² | - |
| 1777669078 | 10.56° C | 35% | 1018.7 hPa | 0 mm | - | 135 W/m² | - |
| 1777668775 | 10.56° C | 34% | 1018.8 hPa | 0 mm | - | 137 W/m² | - |
| 1777668472 | 11.11° C | 36% | 1018.8 hPa | 0 mm | - | 174 W/m² | - |
| 1777668169 | 10.56° C | 36% | 1018.9 hPa | 0 mm | - | 202 W/m² | - |
| 1777667865 | 10.56° C | 35% | 1018.9 hPa | 0 mm | - | 191 W/m² | - |
| 1777667563 | 10.56° C | 34% | 1019.1 hPa | 0 mm | - | 165 W/m² | - |
| 1777667259 | 11.11° C | 33% | 1019.1 hPa | 0 mm | - | 171 W/m² | - |
| 1777666956 | 11.11° C | 34% | 1018.9 hPa | 0 mm | - | 183 W/m² | - |
| 1777666653 | 11.67° C | 34% | 1019 hPa | 0 mm | - | 742 W/m² | - |
| 1777666350 | 11.11° C | 35% | 1018.9 hPa | 0 mm | - | 718 W/m² | - |
| 1777666047 | 12.22° C | 34% | 1019.1 hPa | 0 mm | - | 194 W/m² | - |
| 1777665744 | 12.22° C | 34% | 1019.2 hPa | 0 mm | - | 814 W/m² | - |
| 1777665441 | 12.22° C | 32% | 1019 hPa | 0 mm | - | 814 W/m² | - |
| 1777665137 | 11.11° C | 34% | 1019 hPa | 0 mm | - | 778 W/m² | - |
| 1777664833 | 11.11° C | 35% | 1019.1 hPa | 0 mm | - | 785 W/m² | - |
| 1777664529 | 10.56° C | 34% | 1019.3 hPa | 0 mm | - | 206 W/m² | - |
| 1777664226 | 11.11° C | 37% | 1019 hPa | 0 mm | - | 299 W/m² | - |
| 1777663924 | 10.56° C | 35% | 1019.1 hPa | 0 mm | - | 709 W/m² | - |
| 1777663621 | 10° C | 36% | 1019.4 hPa | 0 mm | - | 320 W/m² | - |
| 1777663319 | 10° C | 35% | 1019.1 hPa | 0 mm | - | 189 W/m² | - |
| 1777663016 | 10° C | 36% | 1019.1 hPa | 0 mm | - | 191 W/m² | - |
| 1777662713 | 11.11° C | 34% | 1019.1 hPa | 0 mm | - | 256 W/m² | - |
| 1777662409 | 10° C | 36% | 1019.3 hPa | 0 mm | - | 756 W/m² | - |
* Rain latest hour (hover to see other rain measurements)
** Current wind speed in m/s (hover to see current wind gust speed)